Tuxtla Gutierrez, Mexico

3:14 AM CDT on April 25, 2017 (GMT -0500)
Francisco Sarabia

Weather History for MMTG - February, 2013

Change the Weather History Date:

Thursday, February 14, 2013

  Actual Average Record
Temperature  
Mean Temperature 80 °F -  
Max Temperature 91 °F 74 °F 96 °F (2007)
Min Temperature 69 °F 57 °F 48 °F (2006)
Cooling Degree Days 15    
Growing Degree Days 30 (Base 50)    
Moisture  
Dew Point 64 °F    
Average Humidity 57    
Maximum Humidity 79    
Minimum Humidity 34    
Precipitation  
Precipitation 0.00 in - - ()
Sea Level Pressure  
Sea Level Pressure 29.89 in    
Wind  
Wind Speed 7 mph ()    
Max Wind Speed 21 mph    
Max Gust Speed 25 mph    
Visibility 8.1 miles    
Events      
Averages and records for this station are not official NWS values.
T = Trace of Precipitation, MM = Missing Value Source: Averaged Metar Reports

Daily Weather History Graph

Daily Weather History Graph

Search for Another Location

Airport or City:

Trip Planner

Search our weather history database for the weather conditions in past years. The results will help you decide how hot, cold, wet, or windy it might be!

Date:

Astronomy

Feb. 14, 2013 Rise Set
Actual Time 6:38 AM CST 6:14 PM CST
Civil Twilight 6:16 AM CST 6:36 PM CST
Nautical Twilight 5:51 AM CST 7:02 PM CST
Astronomical Twilight 5:25 AM CST 7:27 PM CST
Moon 9:31 AM CST (2/14) 10:22 PM CST (2/14)
Length of Visible Light 12h 20m
Length of Day
11h 35m
Waxing Crescent, 22% of the Moon is Illuminated
Feb 14
Waxing Crescent
Feb 17
First Quarter
Feb 25
Full
Mar 4
Last Quarter
Mar 11
New

Hourly Weather History & Observations

Time (CST) Temp. Heat Index Dew Point Humidity Pressure Visibility Wind Dir Wind Speed Gust Speed Precip Events Conditions
2:45 AM 73 °F - 66 °F 72% 29.85 in 9 mi West 4.5 mph - -   Scattered Clouds
5:45 AM 71 °F - 65 °F 76% 29.87 in 9 mi SSW 2.2 mph - -  
5:58 AM 69.8 °F - 62.6 °F 78% 29.87 in 5.0 mi WNW 5.8 mph - N/A   Clear
7:44 AM 71.6 °F - 62.6 °F 73% 30.00 in 7.0 mi NNW 6.9 mph - N/A   Clear
8:40 AM 78 °F - 64 °F 54% 29.93 in 9 mi NW 4.5 mph - -   Partly Cloudy
8:48 AM 77.0 °F - 64.4 °F 65% 29.91 in 7.0 mi NNW 5.8 mph - N/A   Clear
9:43 AM 80.6 °F 81.8 °F 62.6 °F 54% 30.02 in 7.0 mi NW 11.5 mph - N/A   Clear
10:42 AM 82.4 °F 82.9 °F 60.8 °F 48% 30.01 in 8.0 mi NNW 11.5 mph - N/A   Scattered Clouds
11:35 AM 85 °F - 66 °F 43% 29.91 in 9 mi NW 4.5 mph - -   Partly Cloudy
11:41 AM 86.0 °F 86.1 °F 60.8 °F 43% 29.89 in 8.0 mi WNW 8.1 mph 19.6 mph N/A   Mostly Cloudy
12:44 PM 86.0 °F 86.1 °F 60.8 °F 43% 29.95 in 8.0 mi West 10.4 mph - N/A   Scattered Clouds
1:45 PM 87.8 °F 87.1 °F 59.0 °F 38% 29.91 in 10.0 mi NNW 6.9 mph - N/A   Scattered Clouds
2:40 PM 89 °F - 68 °F 41% 29.81 in 9 mi NW 4.5 mph - -   Partly Cloudy
2:46 PM 91.4 °F 90.7 °F 59.0 °F 34% 29.77 in 10.0 mi West 4.6 mph - N/A   Scattered Clouds
3:44 PM 91.4 °F 90.7 °F 59.0 °F 34% 29.86 in 10.0 mi North 12.7 mph - N/A   Scattered Clouds
4:47 PM 86.0 °F 86.6 °F 62.6 °F 45% 29.87 in 8.0 mi NW 15.0 mph - N/A   Scattered Clouds
5:35 PM 80 °F - 68 °F 60% 29.81 in 9 mi North 6.7 mph - -   Scattered Clouds
5:51 PM 80.6 °F 81.8 °F 62.6 °F 54% 29.79 in 7.0 mi NW 13.8 mph - N/A   Scattered Clouds
6:47 PM 78.8 °F - 64.4 °F 61% 29.91 in 7.0 mi NW 11.5 mph - N/A   Scattered Clouds
7:52 PM 77.0 °F - 64.4 °F 65% 29.92 in 7.0 mi NNW 11.5 mph - N/A   Scattered Clouds
8:37 PM 75 °F - 68 °F 72% 29.84 in 9 mi North 6.7 mph - -   Scattered Clouds
8:51 PM 77.0 °F - 64.4 °F 65% 29.85 in 7.0 mi NW 11.5 mph 23.0 mph N/A   Scattered Clouds
9:45 PM 75.2 °F - 64.4 °F 69% 29.96 in 7.0 mi WNW 13.8 mph 25.3 mph N/A   Scattered Clouds
10:46 PM 75.2 °F - 62.6 °F 65% 29.96 in 7.0 mi NW 20.7 mph - N/A   Scattered Clouds
11:37 PM 72 °F - 67 °F 79% 29.88 in 9 mi North 4.5 mph - -   Scattered Clouds